TRA52X LIPQ-EHRD

Flight info

Callsign TRA52X
Flight time N/A
Altitude 38000
Route LUPIN1G/27 LUPIN P125 URAVA DCT VEKEN DCT UMVEG DCT KPT DCT MOMUK DCT USUDO DCT LIRSU DCT SOGRI L608 BUB Y28 HELEN
Aircraft A21N/M-SDE3FGHIRWY/LB1

Departure

Time N/A
Airport Trieste Airport (LIPQ)

Arrival

Time 2026-05-03 20:59
Airport Rotterdam The Hague Airport (EHRD)
Time Latitude Longitude Altitude Speed Heading
2026-05-03 20:15 49.21518 7.99758 38033 ft 434 kts 310°
2026-05-03 20:15 49.25771 7.93188 38055 ft 434 kts 310°
2026-05-03 20:16 49.30027 7.86611 38038 ft 435 kts 310°
2026-05-03 20:16 49.34288 7.80010 38031 ft 436 kts 310°
2026-05-03 20:17 49.38543 7.73389 38027 ft 436 kts 310°
2026-05-03 20:17 49.42791 7.66732 38026 ft 436 kts 310°
2026-05-03 20:18 49.47039 7.60081 38040 ft 436 kts 310°
2026-05-03 20:18 49.51264 7.53467 38047 ft 436 kts 310°
2026-05-03 20:19 49.55512 7.46797 38045 ft 436 kts 310°
2026-05-03 20:19 49.59754 7.40109 38037 ft 437 kts 310°
2026-05-03 20:20 49.64001 7.33402 38045 ft 437 kts 310°
2026-05-03 20:20 49.68240 7.26686 38033 ft 437 kts 309°
2026-05-03 20:21 49.72469 7.19951 38059 ft 437 kts 309°
2026-05-03 20:21 49.76699 7.13206 38051 ft 437 kts 309°
2026-05-03 20:22 49.80926 7.06456 38028 ft 437 kts 309°
2026-05-03 20:22 49.85146 6.99688 38029 ft 437 kts 309°
2026-05-03 20:23 49.89363 6.92922 38027 ft 437 kts 309°
2026-05-03 20:23 49.93588 6.86135 38015 ft 437 kts 309°
2026-05-03 20:24 49.97800 6.79333 38034 ft 437 kts 309°
2026-05-03 20:24 50.02005 6.72510 38012 ft 437 kts 309°
2026-05-03 20:25 50.06198 6.65691 38010 ft 437 kts 309°
2026-05-03 20:25 50.10405 6.58849 38003 ft 437 kts 309°
2026-05-03 20:26 50.14610 6.51992 37984 ft 438 kts 309°
2026-05-03 20:26 50.18764 6.45062 37985 ft 435 kts 303°
2026-05-03 20:27 50.22262 6.37424 38001 ft 433 kts 300°
2026-05-03 20:27 50.25714 6.29715 38000 ft 433 kts 300°
2026-05-03 20:28 50.29173 6.21992 38017 ft 434 kts 300°
2026-05-03 20:28 50.32632 6.14262 38014 ft 434 kts 300°
2026-05-03 20:29 50.36091 6.06521 38002 ft 434 kts 300°
2026-05-03 20:29 50.39521 5.98823 38013 ft 434 kts 301°
2026-05-03 20:30 50.42962 5.91052 37995 ft 434 kts 300°
2026-05-03 20:30 50.46408 5.83259 38005 ft 435 kts 300°
2026-05-03 20:31 50.49858 5.75440 37999 ft 435 kts 300°
2026-05-03 20:31 50.53298 5.67608 37995 ft 436 kts 300°
2026-05-03 20:32 50.56736 5.59759 37993 ft 436 kts 300°
2026-05-03 20:32 50.60167 5.51902 37996 ft 436 kts 300°
2026-05-03 20:33 50.63597 5.44022 37995 ft 437 kts 300°
2026-05-03 20:33 50.67030 5.36118 37992 ft 437 kts 300°
2026-05-03 20:34 50.70465 5.28191 37794 ft 438 kts 300°
2026-05-03 20:34 50.72174 5.24233 37281 ft 436 kts 300°
2026-05-03 20:34 50.73876 5.20283 36668 ft 435 kts 300°
2026-05-03 20:34 50.75574 5.16336 36047 ft 434 kts 299°
2026-05-03 20:35 50.77276 5.12374 35310 ft 438 kts 298°
2026-05-03 20:35 50.78990 5.08371 34511 ft 441 kts 298°
2026-05-03 20:35 50.80503 5.04178 33620 ft 439 kts 289°
2026-05-03 20:35 50.81564 4.99703 32965 ft 429 kts 281°
2026-05-03 20:36 50.82403 4.95218 32466 ft 423 kts 281°
2026-05-03 20:36 50.83250 4.90776 31922 ft 419 kts 281°
2026-05-03 20:36 50.84093 4.86387 31378 ft 415 kts 281°
2026-05-03 20:36 50.84929 4.82040 30859 ft 411 kts 281°
2026-05-03 20:37 50.85755 4.77728 30330 ft 407 kts 281°
2026-05-03 20:37 50.86569 4.73452 29785 ft 404 kts 281°
2026-05-03 20:37 50.87371 4.69219 29269 ft 399 kts 281°
2026-05-03 20:37 50.88155 4.65036 28768 ft 394 kts 280°
2026-05-03 20:38 50.88667 4.62289 28439 ft 391 kts 280°
2026-05-03 20:38 50.89431 4.58186 27939 ft 386 kts 280°
2026-05-03 20:38 50.90285 4.54163 27448 ft 387 kts 287°
2026-05-03 20:38 50.91555 4.50393 26945 ft 388 kts 295°
2026-05-03 20:39 50.92969 4.46773 26473 ft 384 kts 295°
2026-05-03 20:39 50.94364 4.43186 25997 ft 380 kts 295°
2026-05-03 20:39 50.95741 4.39628 25541 ft 376 kts 295°
2026-05-03 20:39 50.97102 4.36105 25085 ft 372 kts 295°
2026-05-03 20:40 50.98443 4.32626 24642 ft 368 kts 295°
2026-05-03 20:40 50.99769 4.29165 24200 ft 365 kts 295°
2026-05-03 20:40 51.01080 4.25735 23752 ft 362 kts 295°
2026-05-03 20:40 51.02380 4.22333 23275 ft 359 kts 296°
2026-05-03 20:41 51.03672 4.18961 22788 ft 355 kts 296°
2026-05-03 20:41 51.04948 4.15626 22356 ft 351 kts 296°
2026-05-03 20:41 51.06206 4.12330 21915 ft 347 kts 296°
2026-05-03 20:41 51.07432 4.09110 21483 ft 344 kts 296°
2026-05-03 20:42 51.08681 4.05890 21046 ft 342 kts 300°
2026-05-03 20:42 51.10204 4.02969 20612 ft 345 kts 310°
2026-05-03 20:42 51.12054 4.00522 20171 ft 347 kts 319°
2026-05-03 20:42 51.13995 3.98247 19708 ft 345 kts 319°
2026-05-03 20:43 51.15923 3.95983 19262 ft 344 kts 319°
2026-05-03 20:43 51.17839 3.93725 18817 ft 342 kts 319°
2026-05-03 20:43 51.19752 3.91464 18388 ft 341 kts 319°
2026-05-03 20:43 51.21702 3.89312 17911 ft 342 kts 327°
2026-05-03 20:44 51.23879 3.87768 17480 ft 344 kts 339°
2026-05-03 20:44 51.26218 3.86964 17050 ft 346 kts 351°
2026-05-03 20:44 51.28620 3.86833 16626 ft 345 kts 356°
2026-05-03 20:44 51.31017 3.86788 16198 ft 343 kts 356°
2026-05-03 20:45 51.33402 3.86739 15775 ft 342 kts 356°
2026-05-03 20:45 51.35773 3.86688 15358 ft 340 kts 356°
2026-05-03 20:45 51.38134 3.86636 14949 ft 339 kts 357°
2026-05-03 20:45 51.40478 3.87017 14550 ft 340 kts 10°
2026-05-03 20:46 51.42726 3.88185 14150 ft 340 kts 23°
2026-05-03 20:46 51.44771 3.90081 13743 ft 340 kts 35°
2026-05-03 20:46 51.46687 3.92310 13304 ft 339 kts 35°
2026-05-03 20:46 51.48587 3.94520 12895 ft 337 kts 35°
2026-05-03 20:47 51.50477 3.96718 12476 ft 334 kts 35°
2026-05-03 20:47 51.52358 3.98902 12071 ft 333 kts 35°
2026-05-03 20:47 51.54228 4.01071 11665 ft 331 kts 35°
2026-05-03 20:47 51.56100 4.03246 11255 ft 329 kts 35°
2026-05-03 20:48 51.57946 4.05391 10838 ft 328 kts 35°
2026-05-03 20:48 51.59792 4.07541 10426 ft 327 kts 35°
2026-05-03 20:48 51.61623 4.09681 10128 ft 322 kts 35°
2026-05-03 20:48 51.63403 4.11766 9971 ft 312 kts 35°
2026-05-03 20:49 51.65142 4.13802 9761 ft 306 kts 35°
2026-05-03 20:49 51.66864 4.15817 9428 ft 305 kts 35°
2026-05-03 20:49 51.68578 4.17824 9022 ft 304 kts 35°
2026-05-03 20:49 51.70290 4.19831 8606 ft 304 kts 35°
2026-05-03 20:50 51.71994 4.21832 8217 ft 303 kts 35°
2026-05-03 20:50 51.73675 4.23842 7873 ft 299 kts 39°
2026-05-03 20:50 51.75114 4.26254 7469 ft 298 kts 51°
2026-05-03 20:50 51.76412 4.28841 7104 ft 296 kts 51°
2026-05-03 20:51 51.77705 4.31414 6708 ft 295 kts 51°
2026-05-03 20:51 51.78992 4.33966 6342 ft 293 kts 51°
2026-05-03 20:51 51.80268 4.36500 5972 ft 289 kts 51°
2026-05-03 20:51 51.81540 4.39027 5562 ft 288 kts 51°
2026-05-03 20:52 51.82799 4.41534 5140 ft 287 kts 51°
2026-05-03 20:52 51.84052 4.44033 4758 ft 285 kts 51°
2026-05-03 20:52 51.85297 4.46518 4360 ft 283 kts 51°
2026-05-03 20:52 51.86530 4.48983 3984 ft 281 kts 51°
2026-05-03 20:53 51.87752 4.51428 3610 ft 278 kts 51°
2026-05-03 20:53 51.88968 4.53856 3241 ft 276 kts 51°
2026-05-03 20:53 51.90168 4.56252 2986 ft 269 kts 51°
2026-05-03 20:53 51.91314 4.58548 2932 ft 256 kts 51°
2026-05-03 20:54 51.92407 4.60736 2874 ft 243 kts 51°
2026-05-03 20:54 51.94392 4.64722 2779 ft 217 kts 50°
2026-05-03 20:54 51.95555 4.66179 2732 ft 210 kts 18°
2026-05-03 20:55 51.96933 4.66346 2718 ft 195 kts 344°
2026-05-03 20:55 51.98117 4.65400 2625 ft 188 kts 321°
2026-05-03 20:55 51.99187 4.64191 2468 ft 187 kts 322°
2026-05-03 20:55 52.00167 4.62842 2184 ft 182 kts 306°
2026-05-03 20:56 52.00776 4.61146 2026 ft 167 kts 287°
2026-05-03 20:56 52.01002 4.59353 1897 ft 159 kts 270°
2026-05-03 20:56 52.00889 4.57600 1749 ft 155 kts 253°
2026-05-03 20:56 52.00478 4.56053 1576 ft 142 kts 237°
2026-05-03 20:57 51.99956 4.54745 1394 ft 135 kts 237°
2026-05-03 20:57 51.99454 4.53480 1214 ft 132 kts 236°
2026-05-03 20:57 51.98958 4.52234 1024 ft 131 kts 237°
2026-05-03 20:57 51.98462 4.50989 850 ft 132 kts 236°
2026-05-03 20:58 51.97965 4.49728 672 ft 133 kts 236°
2026-05-03 20:58 51.97461 4.48454 488 ft 135 kts 236°
2026-05-03 20:58 51.96951 4.47183 313 ft 134 kts 235°
2026-05-03 20:58 51.96441 4.45912 115 ft 134 kts 236°
2026-05-03 20:59 51.95944 4.44663 1 ft 125 kts 236°
2026-05-03 20:59 51.95562 4.43709 0 ft 67 kts 237°
2026-05-03 20:59 51.95401 4.43301 0 ft 27 kts 237°
2026-05-03 20:59 51.95332 4.43141 2 ft 11 kts 224°
2026-05-03 21:00 51.95271 4.43102 1 ft 9 kts 185°
2026-05-03 21:00 51.95227 4.43099 1 ft 10 kts 182°
2026-05-03 21:00 51.95157 4.43132 1 ft 7 kts 120°
2026-05-03 21:00 51.95163 4.43202 1 ft 6 kts 62°
2026-05-03 21:01 51.95185 4.43256 1 ft 6 kts 57°
2026-05-03 21:01 51.95208 4.43314 1 ft 7 kts 56°
2026-05-03 21:01 51.95237 4.43384 1 ft 7 kts 56°
2026-05-03 21:01 51.95241 4.43434 1 ft 5 kts 120°
2026-05-03 21:02 51.95210 4.43470 1 ft 7 kts 146°
2026-05-03 21:02 51.95173 4.43496 1 ft 5 kts 188°
2026-05-03 21:02 51.95147 4.43445 1 ft 7 kts 236°
2026-05-03 21:02 51.95117 4.43372 1 ft 7 kts 237°
2026-05-03 21:03 51.95108 4.43338 1 ft 2 kts 266°
2026-05-03 21:03 51.95117 4.43321 1 ft 2 kts 315°
2026-05-03 21:03 51.95135 4.43302 2 ft 3 kts 327°
2026-05-03 21:03 51.95143 4.43293 1 ft 1 kts 326°